JI1UWB-13 Weather Reports


time (UTC)temp
F
wind
direction
speed
knots
gust
knots
rain 1hr
in
rain 24hr
in
rain mn
in
humidity
%
barometer
mb
20260509202516 58 75 0.0 0.9 0.00 0.00 0.00 42 1021.0
20260509201518 58 21 0.9 1.7 0.00 0.00 0.00 42 1020.9
20260509200517 58 25 0.9 0.9 0.00 0.00 0.00 42 1020.7
20260509195516 58 52 0.0 0.9 0.00 0.00 0.00 42 1020.6
20260509194518 58 18 0.0 0.9 0.00 0.00 0.00 41 1020.5
20260509193518 59 12 0.9 1.7 0.00 0.00 0.00 41 1020.3
20260509192517 59 3 0.9 1.7 0.00 0.00 0.00 41 1020.1
20260509191518 59 8 0.9 0.9 0.00 0.00 0.00 42 1019.8
20260509190518 59 24 0.0 0.9 0.00 0.00 0.00 42 1019.7
20260509185516 59 9 0.9 0.9 0.00 0.00 0.00 41 1019.7
20260509184519 59 71 0.0 0.9 0.00 0.00 0.00 39 1019.6
20260509183518 60 30 0.0 0.9 0.00 0.00 0.00 37 1019.5
20260509182517 60 24 0.0 0.9 0.00 0.00 0.00 37 1019.4
20260509181518 60 312 0.0 0.9 0.00 0.00 0.00 37 1019.3
20260509180517 60 313 0.0 0.9 0.00 0.00 0.00 37 1019.2
20260509175516 60 3 0.0 0.9 0.00 0.00 0.00 37 1019.1
20260509174518 60 326 0.0 0.9 0.00 0.00 0.00 37 1019.1
20260509173518 60 305 0.0 1.7 0.00 0.00 0.00 37 1019.0
20260509172516 60 62 0.0 0.9 0.00 0.00 0.00 37 1018.9
20260509171518 61 32 0.0 0.9 0.00 0.00 0.00 36 1018.8
20260509170517 61 358 0.0 1.7 0.00 0.00 0.00 36 1018.8
20260509165516 61 3 0.0 1.7 0.00 0.00 0.00 35 1018.8
20260509164518 61 31 0.0 1.7 0.00 0.00 0.00 36 1018.7
20260509163517 61 292 0.9 1.7 0.00 0.00 0.00 36 1018.7
20260509162519 61 313 0.9 1.7 0.00 0.00 0.00 37 1018.7
20260509161518 61 17 0.0 0.9 0.00 0.00 0.00 37 1018.6
20260509160517 61 31 0.0 0.9 0.00 0.00 0.00 37 1018.5
20260509155519 61 301 0.0 1.7 0.00 0.00 0.00 37 1018.6
20260509154518 61 19 0.0 0.9 0.00 0.00 0.00 37 1018.6
20260509153517 61 7 0.0 1.7 0.00 0.00 0.00 37 1018.6
20260509152519 62 242 0.0 0.9 0.00 0.00 0.00 36 1018.6
20260509151518 62 301 0.9 1.7 0.00 0.00 0.00 36 1018.6
20260509150517 62 306 0.0 0.9 0.00 0.00 0.00 35 1018.6
20260509145539 62 310 0.0 1.7 0.00 0.00 0.00 35 1018.5
20260509144518 62 325 0.9 3.5 0.00 0.00 0.00 34 1018.5
20260509143517 62 0 0.9 1.7 0.00 0.00 0.00 34 1018.4
20260509142519 62 15 0.9 1.7 0.00 0.00 0.00 33 1018.3
20260509141518 63 356 0.0 1.7 0.00 0.00 0.00 32 1018.2
20260509140517 63 303 0.9 1.7 0.00 0.00 0.00 31 1018.1
20260509135519 63 29 0.9 1.7 0.00 0.00 0.00 30 1018.0
20260509134517 64 33 0.0 1.7 0.00 0.00 0.00 29 1017.9
20260509133516 64 3 0.9 0.9 0.00 0.00 0.00 28 1017.8
20260509132519 64 294 0.9 2.6 0.00 0.00 0.00 28 1017.7
20260509131518 64 18 0.9 2.6 0.00 0.00 0.00 27 1017.6
20260509130517 64 354 0.0 0.9 0.00 0.00 0.00 27 1017.5
20260509125519 64 310 0.0 0.9 0.00 0.00 0.00 27 1017.4
20260509124518 65 9 0.0 0.9 0.00 0.00 0.00 27 1017.3
20260509123517 65 31 0.0 0.9 0.00 0.00 0.00 26 1017.3
20260509122519 65 298 0.0 1.7 0.00 0.00 0.00 26 1017.3
20260509121518 66 14 0.0 0.9 0.00 0.00 0.00 26 1017.2
20260509120517 65 315 0.0 1.7 0.00 0.00 0.00 25 1017.0
20260509115524 65 310 0.0 0.9 0.00 0.00 0.00 24 1017.0
20260509114518 66 18 0.9 1.7 0.00 0.00 0.00 23 1016.9
20260509113517 66 354 0.0 1.7 0.00 0.00 0.00 23 1016.8
20260509112519 66 289 0.0 0.9 0.00 0.00 0.00 23 1016.6
20260509111538 67 293 0.0 1.7 0.00 0.00 0.00 23 1016.5
20260509110517 67 328 0.0 0.9 0.00 0.00 0.00 22 1016.4
20260509105516 67 16 0.9 1.7 0.00 0.00 0.00 23 1016.3
20260509104518 67 268 0.0 2.6 0.00 0.00 0.00 23 1016.1
20260509103537 67 17 0.9 1.7 0.00 0.00 0.00 23 1016.0
20260509102519 67 15 0.9 2.6 0.00 0.00 0.00 23 1015.7
20260509101518 67 334 0.0 1.7 0.00 0.00 0.00 22 1015.5
20260509100517 68 29 0.9 1.7 0.00 0.00 0.00 22 1015.4
20260509095600 68 47 0.0 0.9 0.00 0.00 0.00 22 1015.3
20260509094518 69 35 0.9 1.7 0.00 0.00 0.00 21 1015.1
20260509093517 69 40 0.0 1.7 0.00 0.00 0.00 21 1014.9
20260509092540 70 269 0.9 1.7 0.00 0.00 0.00 20 1014.7
20260509091518 71 10 0.9 2.6 0.00 0.00 0.00 20 1014.5
20260509090538 71 1 0.9 1.7 0.00 0.00 0.00 20 1014.3
20260509085516 71 81 0.0 0.9 0.00 0.00 0.00 20 1014.2
20260509084518 72 10 0.9 2.6 0.00 0.00 0.00 19 1014.0
20260509083517 74 360 0.9 3.5 0.00 0.00 0.00 18 1013.8
20260509082536 76 356 0.9 1.7 0.00 0.00 0.00 18 1013.6
20260509081518 76 17 1.7 4.3 0.00 0.00 0.00 18 1013.6
20260509080523 76 358 1.7 3.5 0.00 0.00 0.00 18 1013.4
20260509075516 77 27 0.9 2.6 0.00 0.00 0.00 17 1013.2
20260509074518 77 16 0.9 4.3 0.00 0.00 0.00 18 1013.1
20260509073517 77 8 0.9 2.6 0.00 0.00 0.00 18 1012.8
20260509072516 78 19 0.9 3.5 0.00 0.00 0.00 18 1012.5
20260509071518 76 336 0.9 2.6 0.00 0.00 0.00 19 1012.4
20260509070517 77 18 1.7 4.3 0.00 0.00 0.00 19 1012.2
20260509065516 79 28 0.9 2.6 0.00 0.00 0.00 18 1011.9
20260509064518 78 19 1.7 3.5 0.00 0.00 0.00 18 1011.9
20260509063520 78 355 0.9 2.6 0.00 0.00 0.00 19 1011.9
20260509062517 78 16 1.7 3.5 0.00 0.00 0.00 20 1012.0
20260509061518 78 10 2.6 6.1 0.00 0.00 0.00 19 1011.9
20260509060517 79 31 1.7 3.5 0.00 0.00 0.00 20 1011.7
20260509055516 78 41 0.9 3.5 0.00 0.00 0.00 20 1011.7
20260509054518 79 16 0.9 3.5 0.00 0.00 0.00 20 1011.7
20260509053517 77 333 1.7 4.3 0.00 0.00 0.00 21 1011.8
20260509052536 77 6 2.6 5.2 0.00 0.00 0.00 21 1011.7
20260509051558 76 346 1.7 6.1 0.00 0.00 0.00 22 1011.6
20260509050516 75 341 2.6 7.8 0.00 0.00 0.00 23 1011.6
20260509045519 76 332 2.6 8.7 0.00 0.00 0.00 23 1011.5
20260509044517 76 5 2.6 6.1 0.00 0.00 0.00 23 1011.4
20260509043516 77 13 1.7 4.3 0.00 0.00 0.00 23 1011.8
20260509042518 75 16 1.7 7.0 0.00 0.00 0.00 24 1012.1
20260509041537 76 23 1.7 3.5 0.00 0.00 0.00 24 1012.2
20260509040516 75 27 1.7 5.2 0.00 0.00 0.00 24 1012.3
20260509035558 75 16 2.6 6.1 0.00 0.00 0.00 24 1012.3
20260509034517 75 18 1.7 8.7 0.00 0.00 0.00 25 1012.3
20260509033516 73 1 2.6 7.8 0.00 0.00 0.00 26 1012.3
20260509032518 74 287 1.7 4.3 0.00 0.00 0.00 26 1012.1
20260509031517 74 22 1.7 6.1 0.00 0.00 0.00 26 1012.1
20260509030516 73 318 2.6 4.3 0.00 0.00 0.00 26 1012.1
20260509025518 73 13 1.7 6.1 0.00 0.00 0.00 27 1012.2
20260509024517 73 334 1.7 6.1 0.00 0.00 0.00 27 1012.1
20260509023519 72 2 1.7 6.1 0.00 0.00 0.00 27 1012.2
20260509022518 73 15 2.6 7.8 0.00 0.00 0.00 27 1012.2
20260509021537 73 329 1.7 5.2 0.00 0.00 0.00 27 1012.2
20260509020520 72 10 2.6 5.2 0.00 0.00 0.00 28 1012.2
20260509015518 72 331 1.7 6.1 0.00 0.00 0.00 28 1012.2
20260509014516 72 342 1.7 7.0 0.00 0.00 0.00 28 1012.1
20260509013519 72 10 2.6 7.8 0.00 0.00 0.00 28 1012.2
20260509012518 73 337 1.7 3.5 0.00 0.00 0.00 28 1012.1
20260509011516 71 351 1.7 6.1 0.00 0.00 0.00 29 1012.2
20260509010538 72 6 1.7 5.2 0.00 0.00 0.00 30 1011.8
20260509005517 72 296 1.7 6.1 0.00 0.00 0.00 29 1011.4
20260509004516 72 336 1.7 7.0 0.00 0.00 0.00 28 1011.3
20260509003518 71 5 1.7 5.2 0.00 0.00 0.00 28 1011.3
20260509002517 71 319 1.7 5.2 0.00 0.00 0.00 27 1011.1
20260509001516 70 334 0.9 4.3 0.00 0.00 0.00 28 1011.1
20260509000518 69 297 0.9 3.5 0.00 0.00 0.00 28 1011.1
20260508235517 70 6 1.7 3.5 0.00 0.00 0.00 27 1010.9
20260508234516 71 315 0.9 3.5 0.00 0.00 0.00 26 1010.7
20260508233539 71 23 0.9 1.7 0.00 0.00 0.00 26 1010.6
20260508232517 72 340 0.9 5.2 0.00 0.00 0.00 24 1010.3
20260508231516 72 292 0.9 2.6 0.00 0.00 0.00 24 1010.1
20260508230518 73 305 0.9 2.6 0.00 0.00 0.00 23 1010.0
20260508225517 73 324 0.9 2.6 0.00 0.00 0.00 23 1009.9
20260508224519 71 30 0.0 0.9 0.00 0.00 0.00 24 1009.8
20260508223517 71 76 0.0 0.9 0.00 0.00 0.00 24 1009.6
20260508222517 69 287 0.0 0.9 0.00 0.00 0.00 24 1009.5
20260508221559 70 219 0.9 1.7 0.00 0.00 0.00 24 1009.3
20260508220538 70 335 0.9 1.7 0.00 0.00 0.00 24 1009.3
20260508215516 67 295 0.9 1.7 0.00 0.00 0.00 26 1009.1
20260508214519 65 275 0.0 0.9 0.00 0.00 0.00 28 1008.9
20260508213518 64 291 0.0 0.9 0.00 0.00 0.00 28 1008.6
20260508212537 64 344 0.9 1.7 0.00 0.00 0.00 28 1008.4
20260508211519 64 352 0.0 0.9 0.00 0.00 0.00 28 1008.2
20260508210517 63 316 0.0 0.9 0.00 0.00 0.00 29 1008.0
20260508205516 63 232 0.0 1.7 0.00 0.00 0.00 29 1007.9
20260508204518 62 293 0.9 1.7 0.00 0.00 0.00 28 1007.7
20260508203517 62 266 0.0 0.9 0.00 0.00 0.00 28 1007.6